Location: SE Lincoln, NE
(40.7805°N, 96.6275°W)
Time: 10:46:22
(UTC-05:00)

Daily predictions for brighter satellites

Satellite Brightness Start Highest point End
(mag) Time Altitude Azimuth Time Altitude Azimuth Time Altitude Azimuth
USA 307 4.3 21:01:20 10° NW 21:05:05 29° NNE 21:08:50 10° E
MetOp-A 4.2 21:00:53 10° SSE 21:06:14 88° ENE 21:11:37 10° NNW
Meteor 1-26 Rocket 4.4 21:02:08 10° SSE 21:07:33 50° E 21:12:50 10° NNE
COSMOS 2406 4.1 21:04:34 10° N 21:09:42 34° ENE 21:14:48 10° ESE
Cosmos 1812 4.3 21:08:33 10° SE 21:11:12 18° E 21:13:52 10° NE
USA 290 3.3 21:08:37 10° NNW 21:11:42 43° WSW 21:14:45 10° S
Cosmos 2278 Rocket 2.6 21:06:44 10° S 21:12:01 43° ESE 21:17:20 10° NE
MOS 1-B Rocket 4.2 21:06:38 10° NNE 21:13:36 70° ESE 21:19:34 10° S
ISS -2.8 21:12:17 10° SSW 21:15:11 27° SE 21:18:05 10° ENE
Cosmos 1242 Rocket 2.6 21:11:53 10° SSW 21:15:26 81° W 21:18:58 10° N
ATLAS 5 CENTAUR R/B 2.8 21:10:58 10° NW 21:16:46 68° WSW 21:23:32 10° SSE
CZ-4C R/B 3.3 21:09:35 10° NNW 21:16:50 59° NE 21:25:09 10° SE
Meteor 1-20 Rocket 4.2 21:12:56 10° N 21:18:32 84° E 21:23:59 10° S
CZ-4 R/B 4.3 21:16:35 10° SW 21:18:54 15° W 21:21:12 10° WNW
Cosmos 1745 Rocket 4.0 21:12:48 10° N 21:19:00 88° W 21:25:08 10° S
USA 308 4.1 21:15:04 10° NW 21:19:01 34° NNE 21:22:56 10° E
Helios 1A Rocket 3.8 21:16:44 10° S 21:20:45 51° W 21:24:49 10° NNW
Cosmos 1709 Rocket 4.1 21:14:48 10° N 21:20:47 55° E 21:26:46 10° SSE
Cosmos 1782 2.8 21:18:53 10° S 21:22:48 59° E 21:26:44 10° NNE
Delta 2 Rocket 4.3 21:18:03 10° WSW 21:23:10 45° S 21:27:47 10° ESE
GPS 2-04 Rocket1 3.4 21:19:25 10° WSW 21:23:19 40° S 21:26:55 12° ESE
Cosmos 1933 3.7 21:19:54 10° SSW 21:23:54 67° W 21:27:55 10° N
OE (NEXTSAT) 4.3 21:24:29 10° WNW 21:27:57 80° SSW 21:30:53 14° ESE
USA 267 3.7 21:22:13 10° SSE 21:28:39 60° SW 21:35:08 10° NW
Cosmos 1515 Rocket 4.4 21:26:03 10° SSE 21:29:53 30° E 21:33:44 10° NNE
Resurs 01 Rocket 2.4 21:28:24 11° SE 21:32:14 37° ENE 21:36:20 10° N
SJ-6B 3.3 21:31:02 10° S 21:34:54 60° W 21:38:53 10° NNW
IRIS 4.5 21:33:19 10° W 21:35:28 34° SSW 21:36:55 18° SE
Cosmos 1633 Rocket 3.0 21:32:03 10° N 21:36:27 71° E 21:40:52 10° SSE
BREEZE M DEB (TANK) 4.2 21:31:38 10° WNW 21:36:35 25° N 21:38:56 10° NE
Cosmos 1500 3.6 21:36:23 10° N 21:39:58 44° E 21:42:43 16° SSE
IRS-1A Rocket 4.4 21:35:24 10° SSE 21:41:12 90° NW 21:47:08 10° NNW
USA 186 3.8 21:39:52 10° SW 21:41:36 18° W 21:43:18 10° NW
Cosmos 1328 Rocket 3.5 21:37:17 10° S 21:41:42 78° E 21:46:06 10° N
CZ-2C R/B 3.3 21:41:39 10° SSE 21:41:44 10° SSE 21:41:44 10° SSE
Cosmos 1777 Rocket 4.0 21:38:01 10° SSW 21:43:13 86° WNW 21:48:27 10° NNE
Cosmos 1833 Rocket 2.8 21:39:28 10° NNW 21:45:06 63° ENE 21:49:37 16° SE
CREW DRAGON DEMO-1 DEB 2.9 21:43:02 10° NW 21:45:36 49° NNE 21:47:00 22° E
Ariane Rocket 3.1 21:43:03 10° S 21:48:06 81° WSW 21:53:12 10° NNW
CZ-2C R/B 4.3 21:44:44 10° NNE 21:48:56 37° E 21:52:30 14° SSE
Akebono 4.0 21:47:00 10° N 21:49:03 55° ENE 21:49:55 30° SE
Cosmos 1470 Rocket 3.7 21:48:41 10° N 21:53:08 60° E 21:56:28 17° SSE
Cosmos 2315 Rocket 4.1 21:46:59 10° S 21:53:21 84° W 21:59:47 10° N
USA 305 3.0 21:52:56 10° NW 21:57:11 66° NE 21:59:50 22° ESE
Iridium 4 Rocket 4.4 21:55:20 17° SE 21:59:20 40° E 22:04:47 10° NNE
X-37B 2.7 22:04:05 10° W 22:06:11 16° SW 22:07:14 14° SSW
Cosmos 1933 Rocket 3.7 22:02:40 10° N 22:06:56 54° E 22:09:13 25° SSE
Meteor 1-5 Rocket 4.0 22:03:13 10° N 22:08:33 70° E 22:12:07 21° SSE
SJ 16-02 1.4 22:04:52 10° SSW 22:09:18 83° WNW 22:13:45 10° NNE
Cosmos 158 Rocket 4.2 22:07:50 10° N 22:12:37 51° ENE 22:15:05 27° SE
CZ-3C R/B 4.4 13:58:10 10° SSW 22:13:48 42° SSW 22:23:30 20° SSE
Cosmos 1536 4.2 22:12:00 10° NNE 22:15:13 23° ENE 22:15:54 22° E
Meteor 1-11 Rocket 4.3 22:09:47 10° N 22:15:27 44° ENE 22:18:23 25° SE
Cosmos 2297 4.3 22:13:13 22° SSE 22:16:01 35° ESE 22:21:07 10° NE
USA 306 2.8 22:12:33 10° NW 22:16:50 88° SSW 22:18:43 33° SE
ARIANE 5 R/B 3.3 22:17:19 28° ESE 22:18:50 37° ENE 22:22:50 10° N
IGS 5A 3.5 22:17:00 22° S 22:19:36 74° WSW 22:23:46 10° NNW
MetOp-B 4.1 22:17:53 23° SSE 22:21:20 82° ENE 22:26:43 10° NNW
Cosmos 1271 Rocket 2.7 22:18:59 22° S 22:21:27 77° E 22:25:28 10° NNE
NOSS 3-4 (A) 3.9 22:16:08 10° NNW 22:23:15 75° NE 22:28:05 26° SE
NOSS 3-4 (C) 3.9 22:16:15 10° NNW 22:23:21 74° NE 22:28:11 26° SE
SWARM A 4.4 22:22:59 10° N 22:26:18 70° W 22:27:37 33° SSW
USA 245 3.3 22:28:39 32° NNE 22:28:39 32° NNE 22:30:12 10° N
OAO 3 Rocket 3.6 22:23:52 10° WSW 22:28:10 39° S 22:28:58 36° SSE
Cosmos 44 4.4 22:26:00 10° NNW 22:31:03 38° NE 22:33:22 26° E
Tianhe-1 0.9 22:29:53 10° WSW 22:33:01 78° SSE 22:33:07 77° SE
Cosmos 2082 Rocket 2.1 22:28:48 10° NNW 22:34:27 81° ENE 22:37:03 33° SSE
Meteor 1-10 Rocket 4.2 22:30:58 13° S 22:36:04 83° W 22:41:48 10° N
ATLAS 2AS CENTAUR R/B 3.1 22:29:23 10° NNW 22:36:34 54° NE 22:40:12 28° ESE
JB-3 4.3 22:33:08 10° NNE 22:36:56 57° E 22:37:29 51° SE
BREEZE-M DEB (TANK) 3.9 22:34:10 10° WNW 22:39:22 29° SW 22:40:07 26° SSW
Cosmos 1943 Rocket 2.5 22:40:56 36° SE 22:42:24 43° ESE 22:47:41 10° NE
SPOT 1/Viking Rocket 3.6 22:41:34 31° S 22:44:10 78° WSW 22:49:22 10° NNW
Terra 2.7 22:43:29 31° E 22:44:30 34° ENE 22:48:48 10° N
Cosmos 1544 4.1 22:41:20 10° NNE 22:44:20 32° ENE 22:44:20 32° ENE
Cosmos 1666 3.2 22:41:13 10° NNW 22:44:51 53° W 22:46:03 36° SSW
USA 307 3.2 22:41:05 10° WNW 22:45:16 54° SW 22:46:07 45° S
Cosmos 2112 Rocket 4.4 22:42:08 10° N 22:47:21 49° ENE 22:48:56 38° ESE
Cosmos 1900 4.3 22:43:14 10° SSW 22:48:21 86° ESE 22:53:26 10° NNE
ERS-1 Rocket 3.1 22:49:34 43° SE 22:50:59 59° ENE 22:55:56 10° N
ISS -2.2 22:48:45 10° W 22:51:54 37° NNW 22:55:04 10° NE
COSMOS 2406 4.4 22:48:52 10° NW 22:53:57 35° WSW 22:57:16 19° SSW
Spot 2 Rocket 3.4 22:53:29 40° S 22:55:19 83° WSW 23:00:23 10° NNW
Cosmos 2278 Rocket 4.2 22:51:25 10° WSW 22:56:14 28° NW 23:01:05 10° N
Cosmos 1937 Rocket 3.5 22:56:07 48° SSE 22:57:12 58° ESE 23:02:17 10° NNE
USA 308 3.5 22:55:01 10° WNW 22:59:03 41° SW 22:59:26 40° SSW
Cosmos 2369 Rocket 3.0 23:01:33 31° E 23:01:33 31° E 23:05:58 10° NE
Delta 2 Rocket 4.3 23:00:33 10° W 23:04:42 38° SSW 23:04:42 38° SSW
CZ-4C R/B 4.1 22:58:30 10° NW 23:05:23 36° WSW 23:10:25 20° SSW
Cosmos 2228 Rocket 3.7 23:04:41 29° SW 23:06:41 53° W 23:11:05 10° N
Resurs 01 Rocket 3.8 23:05:57 12° SW 23:08:49 20° W 23:12:05 10° NW
Cosmos 2154 Rocket 4.0 23:04:10 10° N 23:10:30 83° W 23:12:57 40° S
SPOT 5 3.0 23:10:14 54° SSE 23:11:30 90° W 23:16:51 10° NNW
H-2A R/B 3.6 23:07:37 10° NNE 23:11:23 59° ENE 23:11:23 59° ENE
Cosmos 1680 Rocket 3.5 23:07:45 10° NNW 23:13:07 84° WSW 23:14:17 56° S
Cosmos 1461 3.0 23:12:15 58° SSW 23:13:10 84° ESE 23:17:50 10° NNE
Nadezhda 1 Rocket 4.2 23:09:52 26° SSW 23:13:38 70° W 23:19:51 10° N
Cosmos 1743 3.2 23:10:07 10° N 23:13:25 51° NE 23:13:25 51° NE
Cosmos 858 Rocket 4.3 23:13:20 52° S 23:14:37 81° ESE 23:19:53 10° NNE
Cosmos 962 Rocket 4.5 23:10:34 10° N 23:16:39 64° E 23:18:06 50° SE
Cosmos 1869 Rocket 3.8 23:12:29 10° NNW 23:16:45 59° W 23:17:22 53° SW
Meteor 1-27 Rocket 4.4 23:21:07 22° SW 23:24:47 53° WNW 23:30:36 10° N
Okean 1 4.0 23:29:09 46° NE 23:29:09 46° NE 23:32:08 10° NNE
SL-24 DEB 4.2 23:28:23 67° SW 23:28:47 71° W 23:33:23 10° N
Cosmos 1340 Rocket 3.0 23:25:03 10° NNW 23:28:49 67° WNW 23:28:49 67° WNW
Cosmos 1238 Rocket 3.6 23:25:12 10° N 23:30:50 58° ENE 23:31:02 58° E
Cosmos 1707 Rocket 3.6 23:30:45 69° W 23:30:54 71° W 23:35:19 10° N
Milstar 3 3.9 23:19:54 10° WSW 23:32:43 41° SSW 23:34:17 39° S
Meteor 1-19 Rocket 4.0 23:39:55 70° ESE 23:40:05 71° E 23:45:29 10° NNE
Cosmos 372 Rocket 3.8 23:41:12 82° ESE 23:41:12 82° ESE 23:46:18 10° NNE
SL-24 R/B - RUBIN 2 4.2 23:40:25 10° NW 23:45:24 54° WSW 23:45:24 54° WSW
Cosmos 1607 3.9 23:46:20 63° SE 23:46:51 65° ESE 23:53:17 10° NE
Cosmos 2181 Rocket 3.8 23:48:11 66° SSE 23:49:05 81° E 23:55:14 10° N
Meteor 2-4 Rocket 4.1 23:50:28 49° E 23:50:28 49° E 23:55:34 10° NNE
Cosmos 2366 rocket 3.9 23:45:15 10° N 23:51:26 67° E 23:52:09 62° ESE
Gbstr 26 Del rocket 4.0 23:44:27 10° NW 23:51:54 79° NE 23:53:19 57° ESE
Cosmos 1818 3.5 23:46:49 10° NW 23:52:18 76° WSW 23:52:26 76° SW
